Sault Ste Marie, MI

12:21 AM EDT on August 24, 2017 (GMT -0400)
Sault Ste Marie Municipal / Sanderson Field

Weather History for KANJ - March, 2012

Change the Weather History Date:

Sunday, March 18, 2012

  Actual Average Record
Temperature  
Mean Temperature 58 °F 27 °F  
Max Temperature 72 °F 35 °F 72 °F (2012)
Min Temperature 44 °F 18 °F -14 °F (1939)
Degree Days  
Heating Degree Days 7 38  
Month to date heating degree days 570 743  
Since 1 July heating degree days 5728 6869  
Cooling Degree Days 0 0  
Month to date cooling degree days 0 0  
Year to date cooling degree days 0 0  
Growing Degree Days 8 (Base 50)    
Moisture  
Dew Point 47 °F    
Average Humidity 71    
Maximum Humidity 92    
Minimum Humidity 49    
Precipitation  
Precipitation 0.00 in 0.06 in 0.62 in (1986)
Month to date precipitation 1.96 1.05  
Year to date precipitation 5.91 4.58  
Snow  
Snow 0.00 in 0.40 in 4.30 in (1986)
Month to date snowfall 9.5 8.8  
Since 1 July snowfall 80.1 109.0  
Snow Depth T in    
Sea Level Pressure  
Sea Level Pressure 30.00 in    
Wind  
Wind Speed 6 mph (ESE)    
Max Wind Speed 13 mph    
Max Gust Speed 17 mph    
Visibility 9 miles    
Events      
T = Trace of Precipitation, MM = Missing Value Source: NWS Daily Summary

Daily Weather History Graph

Daily Weather History Graph

Search for Another Location

Airport or City:

Trip Planner

Search our weather history database for the weather conditions in past years. The results will help you decide how hot, cold, wet, or windy it might be!

Date:

Astronomy

Mar. 18, 2012 Rise Set
Actual Time 7:43 AM EDT 7:48 PM EDT
Civil Twilight 7:13 AM EDT 8:18 PM EDT
Nautical Twilight 6:38 AM EDT 8:53 PM EDT
Astronomical Twilight 6:02 AM EDT 9:29 PM EDT
Moon 5:34 AM EDT (3/18) 4:02 PM EDT (3/18)
Length of Visible Light 13h 04m
Length of Day
12h 04m
Waning Crescent, 15% of the Moon is Illuminated
Mar 18
Waning Crescent
Mar 22
New
Mar 30
First Quarter
Apr 6
Full
Apr 13
Last Quarter

Hourly Weather History & Observations

Time (EDT) Temp. Windchill Dew Point Humidity Pressure Visibility Wind Dir Wind Speed Gust Speed Precip Events Conditions
12:55 AM 48.0 °F - 44.1 °F 86% 30.01 in 9.0 mi ESE 3.5 mph - N/A   Overcast
1:55 AM 48.0 °F - 44.1 °F 86% 30.01 in 8.0 mi Calm Calm - N/A   Overcast
2:55 AM 46.9 °F - 43.0 °F 86% 30.01 in 7.0 mi ENE 3.5 mph - N/A   Mostly Cloudy
3:55 AM 46.0 °F 44.8 °F 42.1 °F 86% 30.01 in 7.0 mi East 3.5 mph - N/A   Clear
4:55 AM 45.0 °F 43.5 °F 42.1 °F 90% 30.00 in 6.0 mi East 3.5 mph - N/A   Clear
5:55 AM 45.0 °F 42.6 °F 42.1 °F 90% 30.01 in 8.0 mi ENE 4.6 mph - N/A   Clear
6:55 AM 45.0 °F 43.5 °F 41.0 °F 86% 30.01 in 8.0 mi ENE 3.5 mph - N/A   Clear
7:55 AM 45.0 °F 41.2 °F 41.0 °F 86% 30.02 in 7.0 mi ENE 6.9 mph - N/A   Clear
8:55 AM 46.9 °F - 43.0 °F 86% 30.04 in 10.0 mi ENE 3.5 mph - N/A   Clear
9:55 AM 51.1 °F - 45.0 °F 80% 30.04 in 10.0 mi ESE 5.8 mph - N/A   Clear
10:55 AM 57.0 °F - 46.9 °F 69% 30.04 in 10.0 mi East 5.8 mph - N/A   Clear
11:55 AM 60.1 °F - 48.0 °F 64% 30.03 in 10.0 mi East 5.8 mph - N/A   Clear
12:55 PM 64.0 °F - 50.0 °F 60% 30.04 in 10.0 mi SSE 5.8 mph - N/A   Clear
1:55 PM 66.9 °F - 51.1 °F 57% 30.01 in 10.0 mi SE 9.2 mph - N/A   Clear
2:55 PM 70.0 °F - 51.1 °F 51% 30.00 in 10.0 mi SSE 8.1 mph - N/A   Clear
3:55 PM 71.1 °F - 52.0 °F 51% 29.98 in 10.0 mi ESE 9.2 mph - N/A   Clear
4:55 PM 72.0 °F - 52.0 °F 49% 29.97 in 10.0 mi ESE 9.2 mph - N/A   Clear
5:55 PM 70.0 °F - 52.0 °F 53% 29.96 in 10.0 mi ESE 9.2 mph - N/A   Clear
6:55 PM 66.9 °F - 51.1 °F 57% 29.96 in 10.0 mi SE 8.1 mph - N/A   Clear
7:55 PM 62.1 °F - 51.1 °F 67% 29.97 in 10.0 mi ESE 4.6 mph - N/A   Clear
8:55 PM 59.0 °F - 50.0 °F 72% 29.99 in 10.0 mi SE 4.6 mph - N/A   Clear
9:55 PM 55.9 °F - 48.9 °F 77% 30.00 in 10.0 mi East 5.8 mph - N/A   Clear
10:55 PM 53.1 °F - 48.0 °F 83% 30.00 in 10.0 mi SE 4.6 mph - N/A   Clear
11:55 PM 51.1 °F - 48.0 °F 89% 30.00 in 8.0 mi East 4.6 mph - N/A   Clear